Terug naar catalogus

QIANFAN-62

ActiefCommunicatiePO
NORAD 62792·PAYLOAD·🇨🇳 China

Gelanceerd Jan 23, 2025 vanaf Taiyuan Satellite Launch Center

Loading…

Volgende Passages (komende 24 uur)

TLE

VersSource: Space-Track

Epoch: Sep 14, 2026, 22:10 UTC

1 62792U 25016H   26257.92369257  .00000039  00000-0  42574-4 0  9993
2 62792  88.9662  74.4162 0014222 264.8649  95.0879 13.51019675 84526

Volg QIANFAN-62 in realtime met AllMySat

Download on the App Store